This is the latest recevied weather packets stored in our database for station/object HS3MXC-1. If no packets are shown the sender has not sent any weather packets the latest 10 day(s).
| Time | Temp. | Humidity | Pressure | Rain* | Wind** | Luminosity | Snow |
|---|---|---|---|---|---|---|---|
| 1777982071 | 30.56° C | 65% | 995.4 hPa | - | - | - | - |
| 1777981765 | 30.56° C | 65% | 995.5 hPa | - | - | - | - |
| 1777981458 | 30.56° C | 65% | 995.5 hPa | - | - | - | - |
| 1777981151 | 30.56° C | 64% | 995.5 hPa | - | - | - | - |
| 1777980846 | 30.56° C | 64% | 995.6 hPa | - | - | - | - |
| 1777980539 | 30.56° C | 64% | 995.7 hPa | - | - | - | - |
| 1777980232 | 31.11° C | 64% | 995.7 hPa | - | - | - | - |
| 1777979925 | 31.11° C | 64% | 995.7 hPa | - | - | - | - |
| 1777979619 | 31.11° C | 64% | 995.7 hPa | - | - | - | - |
| 1777979312 | 31.11° C | 64% | 995.8 hPa | - | - | - | - |
| 1777979006 | 31.11° C | 63% | 995.6 hPa | - | - | - | - |
| 1777978700 | 31.11° C | 63% | 995.6 hPa | - | - | - | - |
| 1777978393 | 31.11° C | 63% | 995.5 hPa | - | - | - | - |
| 1777978087 | 31.11° C | 63% | 995.5 hPa | - | - | - | - |
| 1777977473 | 31.11° C | 63% | 995.4 hPa | - | - | - | - |
| 1777977166 | 31.11° C | 63% | 995.2 hPa | - | - | - | - |
| 1777976859 | 31.11° C | 63% | 995.1 hPa | - | - | - | - |
| 1777976623 | 31.67° C | 58% | 995.2 hPa | - | - | - | - |
| 1777976551 | 31.11° C | 63% | 995 hPa | - | - | - | - |
| 1777976245 | 31.67° C | 62% | 995.3 hPa | - | - | - | - |
| 1777976211 | 31.11° C | 58% | 995 hPa | - | - | - | - |
| 1777975937 | 31.67° C | 62% | 995.4 hPa | - | - | - | - |
| 1777975630 | 31.67° C | 62% | 995.3 hPa | - | - | - | - |
| 1777975323 | 31.67° C | 62% | 995.6 hPa | - | - | - | - |
| 1777975017 | 31.67° C | 62% | 995.8 hPa | - | - | - | - |
* Rain since midnight (hover to see other rain measurements)
** Current wind speed in m/s (hover to see current wind gust speed)